TimeEST,TemperatureF,Dew PointF,Humidity,Sea Level PressureIn,VisibilityMPH,Wind Direction,Wind SpeedMPH,Gust SpeedMPH,PrecipitationIn,Events,Conditions,WindDirDegrees,DateUTC
12:08 AM,28.4,21.2,74,30.32,10.0,Calm,Calm,-,N/A,,Clear,0,2012-12-31 05:08:00
12:29 AM,28.4,21.2,74,30.33,10.0,Calm,Calm,-,N/A,,Clear,0,2012-12-31 05:29:00
12:51 AM,26.6,19.4,74,30.32,10.0,Calm,Calm,-,N/A,,Clear,0,2012-12-31 05:51:00
1:12 AM,24.8,19.4,80,30.32,10.0,Calm,Calm,-,N/A,,Clear,0,2012-12-31 06:12:00
1:33 AM,23.0,19.4,86,30.32,10.0,Calm,Calm,-,N/A,,Scattered Clouds,0,2012-12-31 06:33:00
1:55 AM,24.8,21.2,86,30.32,10.0,Calm,Calm,-,N/A,,Scattered Clouds,0,2012-12-31 06:55:00
2:16 AM,23.0,19.4,86,30.32,10.0,SE,3.5,-,N/A,,Scattered Clouds,140,2012-12-31 07:16:00
2:37 AM,23.0,21.2,93,30.32,10.0,Calm,Calm,-,N/A,,Clear,0,2012-12-31 07:37:00
2:58 AM,23.0,21.2,93,30.31,10.0,Calm,Calm,-,N/A,,Clear,0,2012-12-31 07:58:00
3:20 AM,23.0,21.2,93,30.31,10.0,Calm,Calm,-,N/A,,Clear,0,2012-12-31 08:20:00
3:41 AM,23.0,21.2,93,30.30,10.0,Calm,Calm,-,N/A,,Clear,0,2012-12-31 08:41:00
4:02 AM,23.0,21.2,93,30.30,10.0,Calm,Calm,-,N/A,,Clear,0,2012-12-31 09:02:00
4:24 AM,23.0,21.2,93,30.29,10.0,Calm,Calm,-,N/A,,Clear,0,2012-12-31 09:24:00
4:45 AM,23.0,21.2,93,30.28,10.0,Calm,Calm,-,N/A,,Clear,0,2012-12-31 09:45:00
5:06 AM,23.0,21.2,93,30.27,10.0,Calm,Calm,-,N/A,,Clear,0,2012-12-31 10:06:00
5:27 AM,23.0,21.2,93,30.28,10.0,Calm,Calm,-,N/A,,Clear,0,2012-12-31 10:27:00
5:49 AM,23.0,21.2,93,30.27,10.0,Calm,Calm,-,N/A,,Clear,0,2012-12-31 10:49:00
6:10 AM,21.2,21.2,100,30.27,10.0,Calm,Calm,-,N/A,,Clear,0,2012-12-31 11:10:00
6:31 AM,21.2,21.2,100,30.26,10.0,Calm,Calm,-,N/A,,Clear,0,2012-12-31 11:31:00
6:52 AM,21.2,21.2,100,30.26,10.0,Calm,Calm,-,N/A,,Clear,0,2012-12-31 11:52:00
7:14 AM,21.2,21.2,100,30.27,10.0,Calm,Calm,-,N/A,,Clear,0,2012-12-31 12:14:00
7:56 AM,19.4,19.4,100,30.26,7.0,Calm,Calm,-,N/A,,Clear,0,2012-12-31 12:56:00
8:17 AM,21.2,21.2,100,30.26,7.0,Calm,Calm,-,N/A,,Clear,0,2012-12-31 13:17:00
8:39 AM,21.2,21.2,100,30.26,5.0,Calm,Calm,-,N/A,,Clear,0,2012-12-31 13:39:00
9:00 AM,23.0,21.2,93,30.25,7.0,Calm,Calm,-,N/A,,Clear,0,2012-12-31 14:00:00
9:21 AM,23.0,23.0,100,30.25,10.0,Calm,Calm,-,N/A,,Clear,0,2012-12-31 14:21:00
9:42 AM,26.6,21.2,80,30.24,10.0,Calm,Calm,-,N/A,,Clear,0,2012-12-31 14:42:00
10:03 AM,26.6,23.0,86,30.24,7.0,Calm,Calm,-,N/A,,Clear,0,2012-12-31 15:03:00
10:25 AM,28.4,23.0,80,30.24,7.0,Calm,Calm,-,N/A,,Clear,0,2012-12-31 15:25:00
10:46 AM,30.2,23.0,75,30.23,10.0,Calm,Calm,-,N/A,,Clear,0,2012-12-31 15:46:00
11:07 AM,32.0,23.0,69,30.20,10.0,Calm,Calm,-,N/A,,Clear,0,2012-12-31 16:07:00
11:28 AM,32.0,23.0,69,30.19,10.0,NW,3.5,-,N/A,,Clear,320,2012-12-31 16:28:00
11:50 AM,32.0,23.0,69,30.18,10.0,NNW,4.6,-,N/A,,Clear,330,2012-12-31 16:50:00
12:11 PM,35.6,23.0,60,30.17,10.0,Calm,Calm,-,N/A,,Clear,0,2012-12-31 17:11:00
12:32 PM,35.6,23.0,60,30.15,10.0,SSW,4.6,-,N/A,,Clear,200,2012-12-31 17:32:00
12:53 PM,41.0,21.2,45,30.13,10.0,SSW,8.1,-,N/A,,Clear,200,2012-12-31 17:53:00
1:15 PM,42.8,21.2,42,30.12,10.0,SSW,9.2,-,N/A,,Clear,200,2012-12-31 18:15:00
1:36 PM,41.0,21.2,45,30.11,10.0,SSW,10.4,-,N/A,,Clear,200,2012-12-31 18:36:00
1:57 PM,42.8,21.2,42,30.10,10.0,SW,9.2,-,N/A,,Clear,220,2012-12-31 18:57:00
2:18 PM,42.8,19.4,39,30.10,10.0,SSW,8.1,16.1,N/A,,Scattered Clouds,210,2012-12-31 19:18:00
2:40 PM,41.0,21.2,45,30.10,10.0,SSW,6.9,-,N/A,,Mostly Cloudy,200,2012-12-31 19:40:00
3:01 PM,41.0,21.2,45,30.10,10.0,SSW,9.2,-,N/A,,Overcast,210,2012-12-31 20:01:00
3:22 PM,41.0,24.8,53,30.10,10.0,SSW,3.5,-,N/A,,Overcast,210,2012-12-31 20:22:00
3:43 PM,41.0,28.4,61,30.09,10.0,SW,6.9,-,N/A,,Overcast,220,2012-12-31 20:43:00
4:04 PM,41.0,30.2,65,30.09,10.0,WNW,4.6,24.2,N/A,,Mostly Cloudy,290,2012-12-31 21:04:00
4:26 PM,39.2,30.2,70,30.10,10.0,South,10.4,-,N/A,,Overcast,190,2012-12-31 21:26:00
4:47 PM,37.4,30.2,75,30.09,10.0,South,8.1,16.1,N/A,,Overcast,190,2012-12-31 21:47:00
5:08 PM,37.4,30.2,75,30.09,10.0,South,6.9,-,N/A,,Overcast,170,2012-12-31 22:08:00
5:29 PM,37.4,30.2,75,30.07,10.0,South,9.2,-,N/A,,Mostly Cloudy,180,2012-12-31 22:29:00
5:51 PM,37.4,30.2,75,30.07,10.0,South,5.8,-,N/A,,Scattered Clouds,170,2012-12-31 22:51:00
6:12 PM,37.4,30.2,75,30.08,10.0,South,4.6,-,N/A,,Scattered Clouds,180,2012-12-31 23:12:00
6:33 PM,37.4,30.2,75,30.08,10.0,South,8.1,-,N/A,,Mostly Cloudy,180,2012-12-31 23:33:00
6:54 PM,37.4,30.2,75,30.07,10.0,South,9.2,-,N/A,,Overcast,180,2012-12-31 23:54:00
7:16 PM,37.4,32.0,81,30.06,10.0,SSW,5.8,-,N/A,,Mostly Cloudy,200,2013-01-01 00:16:00
7:37 PM,37.4,32.0,81,30.06,10.0,South,8.1,-,N/A,,Scattered Clouds,170,2013-01-01 00:37:00
7:58 PM,37.4,32.0,81,30.06,10.0,South,5.8,-,N/A,,Mostly Cloudy,190,2013-01-01 00:58:00
8:19 PM,37.4,30.2,75,30.05,10.0,South,8.1,-,N/A,,Overcast,180,2013-01-01 01:19:00
8:41 PM,37.4,30.2,75,30.05,10.0,SSW,8.1,-,N/A,,Overcast,210,2013-01-01 01:41:00
9:02 PM,37.4,30.2,75,30.04,10.0,South,9.2,-,N/A,,Overcast,180,2013-01-01 02:02:00
9:23 PM,37.4,30.2,75,30.04,10.0,South,5.8,-,N/A,,Mostly Cloudy,180,2013-01-01 02:23:00
9:44 PM,37.4,30.2,75,30.04,10.0,South,3.5,-,N/A,,Scattered Clouds,170,2013-01-01 02:44:00
10:06 PM,37.4,30.2,75,30.03,10.0,South,4.6,-,N/A,,Scattered Clouds,180,2013-01-01 03:06:00
10:27 PM,37.4,30.2,75,30.03,10.0,North,3.5,-,N/A,,Scattered Clouds,10,2013-01-01 03:27:00
10:48 PM,37.4,30.2,75,30.03,10.0,SW,5.8,-,N/A,,Scattered Clouds,230,2013-01-01 03:48:00
11:09 PM,37.4,30.2,75,30.02,10.0,West,13.8,24.2,N/A,,Clear,280,2013-01-01 04:09:00
11:31 PM,39.2,30.2,70,30.02,10.0,West,9.2,16.1,N/A,,Clear,280,2013-01-01 04:31:00
11:52 PM,39.2,30.2,70,30.01,10.0,WSW,8.1,-,N/A,,Clear,240,2013-01-01 04:52:00